Vorticity
nan nan nan nan nan nan nan nan nan nan nan nan nan nan nan nan nan nan nan nan nan nan nan nan nan nan nan nan nan nan nan nan nan nan nan nan nan nan nan nan nan nan nan nan nan nan nan nan nan nan nan nan nan nan nan nan nan nan nan nan nan nan nan nan nan nan nan nan nan nan nan nan nan nan nan nan nan nan nan nan nan nan nan nan nan nan
nan 9 7 7 10 13 10 8 11 10 7 6 7 6 5 7 11 14 17 15 14 14 12 10 8 7 7 11 10 9 10 10 10 11 11 11 10 10 9 9 9 9 9 9 9 10 9 10 11 11 11 11 11 12 12 12 12 12 11 11 11 11 12 12 12 12 11 11 11 11 12 14 14 15 16 16 17 17 15 14 15 15 17 17 16 nan
nan 10 8 11 13 13 8 9 12 11 10 9 7 5 5 12 16 16 13 13 12 11 9 7 7 9 13 15 14 13 11 10 10 9 9 9 9 9 9 9 10 10 10 10 11 11 10 10 11 11 11 11 12 12 12 12 12 12 12 12 12 13 13 14 14 13 13 12 13 14 14 15 15 16 17 18 18 17 15 13 13 13 13 14 13 nan
nan 9 9 12 13 12 8 8 10 12 13 11 10 10 15 20 18 13 8 7 7 8 8 8 10 12 16 16 13 10 7 8 7 7 8 8 9 9 10 10 11 11 11 11 11 11 10 10 10 10 10 11 11 11 11 11 11 12 12 13 13 13 13 14 14 13 13 13 14 15 14 14 13 12 13 14 14 14 13 12 11 10 10 11 10 nan
nan 8 9 11 11 12 11 11 11 13 13 14 15 16 20 18 13 9 7 7 8 10 11 12 12 13 12 10 6 4 5 7 7 8 9 10 11 11 12 12 13 13 12 11 11 10 9 9 9 9 10 10 10 11 11 10 11 11 11 11 12 12 12 12 12 12 12 12 12 11 11 10 9 8 8 9 9 10 10 10 9 9 9 9 10 nan
nan 10 10 10 9 10 12 12 13 13 15 16 15 15 14 12 9 7 7 9 11 12 12 11 11 11 9 5 2 4 8 11 12 12 14 14 14 14 14 14 13 12 11 10 9 8 8 8 9 9 10 10 10 10 10 10 10 11 11 11 11 11 11 11 10 10 9 9 9 9 9 9 8 8 8 8 8 9 9 9 8 8 9 9 10 nan
nan 9 9 8 9 9 10 11 12 14 15 13 12 11 9 9 8 7 7 8 10 10 10 10 10 11 10 7 7 11 16 18 21 22 20 19 18 17 15 14 12 11 9 8 8 8 8 9 9 10 10 10 10 10 10 10 10 10 10 10 10 10 10 10 10 9 9 8 9 8 8 9 9 10 10 10 10 10 10 10 10 10 10 11 11 nan
nan 7 7 7 8 10 11 12 13 13 11 9 8 7 8 9 9 9 9 9 9 10 11 10 11 11 10 10 12 16 18 20 23 24 23 24 22 19 16 14 12 10 9 8 9 9 9 10 10 11 10 10 10 10 10 10 10 10 10 10 10 10 10 10 10 10 10 10 10 9 9 10 10 11 12 12 12 12 12 12 12 12 12 12 12 nan
nan 7 8 9 11 13 14 14 11 9 7 6 6 6 8 8 9 9 10 11 11 12 11 10 10 10 10 11 13 15 14 14 13 10 12 13 12 10 10 12 13 13 11 10 10 10 11 11 11 11 11 10 10 10 10 10 10 11 11 11 11 11 10 10 11 11 10 10 10 10 10 10 11 11 12 12 13 13 13 13 12 12 12 12 12 nan
nan 10 11 15 17 16 13 9 8 6 7 8 7 7 6 6 8 8 9 10 11 11 10 9 10 10 11 12 12 12 13 12 9 6 7 4 2 3 8 11 13 12 11 12 12 12 13 13 12 12 11 11 11 11 11 12 12 12 12 12 11 11 11 10 10 10 10 10 10 10 10 11 11 11 12 12 12 12 12 12 12 12 12 12 12 nan
nan 16 18 17 16 13 8 5 5 5 9 11 10 9 7 7 8 8 8 10 10 10 9 10 10 10 10 11 12 13 14 14 15 16 16 14 14 17 19 19 17 15 17 18 18 18 16 14 14 13 13 13 13 13 13 13 13 12 12 12 11 11 10 10 10 10 10 10 10 10 10 11 11 11 11 11 11 11 11 11 11 11 11 11 11 nan
nan 19 18 13 8 5 5 5 6 7 10 11 10 9 9 10 10 9 9 9 9 9 10 11 11 10 9 10 11 13 14 13 14 16 19 21 24 27 28 26 24 23 25 26 26 24 19 17 16 16 16 15 14 13 13 13 12 11 11 10 10 10 10 10 10 10 10 10 10 10 10 10 10 11 11 10 10 10 10 10 10 10 10 10 11 nan
nan 13 8 4 3 3 4 6 8 8 9 10 9 10 10 10 10 10 10 9 9 10 11 10 10 10 12 12 12 12 11 11 12 12 13 15 17 18 19 18 18 20 22 23 23 21 19 20 22 22 18 17 15 14 15 13 11 10 10 9 9 9 9 10 10 10 10 10 10 10 10 10 10 11 11 11 11 10 10 10 10 10 10 10 10 nan
nan 5 2 2 4 5 6 7 8 8 9 9 10 10 10 8 8 9 10 10 10 11 11 10 10 11 14 14 13 11 10 11 11 11 9 9 10 10 10 10 10 11 13 14 14 12 14 20 24 23 21 18 16 17 15 12 10 9 9 9 9 9 9 10 9 10 10 10 10 11 11 11 12 12 12 12 12 12 12 11 11 11 11 11 11 nan
nan 5 4 5 7 8 9 9 10 10 10 9 9 9 9 8 9 11 11 10 11 12 13 13 12 13 13 12 11 10 10 11 10 10 9 9 8 8 8 10 10 10 10 10 10 9 14 19 19 17 18 14 12 9 6 6 7 7 8 8 9 9 9 10 10 11 11 12 12 12 13 13 13 13 13 13 13 13 13 13 13 13 13 13 13 nan
nan 7 7 8 9 9 10 10 10 10 10 10 10 9 10 10 11 12 12 13 14 14 13 13 14 15 13 10 9 10 11 12 11 9 9 9 8 8 10 11 11 10 10 11 11 12 16 16 14 13 12 8 5 2 3 5 5 7 7 8 9 9 10 11 11 12 12 13 13 13 13 13 12 13 13 13 13 13 13 13 13 13 13 13 13 nan
nan 8 9 9 10 10 10 10 10 10 10 10 10 10 10 11 11 12 12 13 13 12 9 10 11 14 13 11 11 10 11 11 10 9 9 9 8 9 11 12 12 11 11 10 11 11 12 13 12 12 8 1 0 2 4 5 6 7 8 9 10 10 11 12 12 12 13 12 12 12 12 11 11 11 11 12 12 12 12 12 11 12 12 11 11 nan
nan 8 9 10 11 11 11 11 11 10 10 10 10 11 11 11 11 11 11 10 9 7 6 9 10 9 8 8 8 6 8 10 10 9 9 9 10 10 12 13 12 11 10 10 11 11 11 10 7 2 -6 -7 -1 3 5 7 8 9 10 11 11 12 12 12 12 12 12 12 11 11 10 10 10 10 10 10 11 11 11 11 11 11 11 10 11 nan
nan 9 10 12 11 10 9 9 8 8 8 9 10 11 12 12 11 10 9 8 7 6 8 9 9 8 8 5 2 2 7 11 11 10 10 10 10 10 12 13 12 11 10 10 11 11 11 9 5 1 -4 1 6 7 9 10 11 11 11 11 11 11 11 11 11 11 11 11 11 10 10 11 11 11 11 11 11 11 11 11 12 12 12 11 11 nan
nan 10 10 10 10 10 11 9 7 6 6 8 11 12 11 9 9 9 9 8 8 9 10 10 9 9 9 6 4 4 7 11 12 13 13 12 12 11 12 13 12 11 10 10 10 10 10 9 11 12 12 11 10 10 11 11 11 10 10 9 10 10 10 10 11 11 11 11 11 11 12 12 12 12 12 12 12 12 12 12 12 12 12 12 12 nan
nan 10 8 6 7 9 10 7 5 5 7 11 12 12 9 8 8 9 9 9 10 10 10 10 9 9 8 6 6 6 8 12 13 14 15 13 11 10 11 12 11 11 10 10 10 10 10 11 13 13 11 6 7 8 8 8 8 9 9 9 9 10 11 11 11 11 12 12 12 12 13 12 12 12 12 12 12 12 12 12 12 12 12 12 12 nan
nan 9 7 7 9 9 7 7 8 10 12 12 11 8 8 8 8 9 10 10 10 10 10 10 9 8 7 8 8 8 10 13 13 13 12 9 8 9 10 11 11 11 11 11 11 11 11 11 10 7 3 2 4 6 8 9 9 10 10 10 11 11 12 12 12 12 12 12 12 12 12 12 12 12 12 12 12 12 12 12 12 12 12 12 12 nan
nan 7 9 13 14 13 12 12 13 12 12 10 8 7 7 7 8 9 10 11 11 11 12 11 10 9 9 10 9 10 12 13 13 13 11 9 8 9 10 11 11 11 10 10 9 10 10 10 9 7 7 7 9 9 10 10 11 11 11 12 12 12 12 13 13 13 13 13 13 12 12 12 12 12 12 12 12 13 13 12 12 13 12 13 13 nan
nan 10 13 14 13 10 7 4 3 3 5 8 9 9 8 8 8 9 10 10 11 12 12 11 10 11 11 10 11 12 12 13 13 14 12 11 9 8 9 10 10 10 10 9 8 9 10 11 10 11 12 13 13 11 12 12 12 12 12 12 12 13 13 13 13 13 13 13 13 12 12 13 13 12 13 13 13 13 13 13 13 13 13 13 13 nan
nan 9 8 2 -3 -8 -11 -10 -8 -5 -1 5 8 10 10 10 11 12 12 13 12 11 9 8 9 11 11 13 14 14 13 12 12 13 12 11 9 8 8 10 10 11 10 9 9 10 11 11 10 11 11 14 14 14 14 14 13 13 13 13 13 13 13 13 13 12 12 12 12 12 12 12 12 12 12 12 12 12 12 13 12 12 12 12 13 nan
nan -2 -8 -12 -13 -11 -7 -3 -2 -1 1 6 7 7 9 13 15 15 14 13 12 10 9 10 11 11 11 13 13 12 11 11 13 13 10 8 8 9 10 10 11 10 9 9 10 10 9 10 11 11 12 14 16 18 16 15 14 14 13 12 12 12 12 11 11 11 11 11 11 12 11 11 12 12 12 12 12 12 12 12 12 12 12 14 18 nan
nan -2 -4 -1 3 7 11 11 10 9 11 10 7 6 11 15 15 13 11 11 10 10 10 11 11 11 12 12 10 9 8 11 13 12 11 10 10 11 9 9 9 10 11 12 10 9 9 11 12 12 13 14 16 17 16 15 14 14 13 12 11 11 11 11 11 12 12 12 12 13 13 13 12 13 13 13 13 13 13 13 13 14 16 23 30 nan
nan 8 10 13 14 15 16 16 17 16 16 12 10 14 21 20 14 11 10 10 10 10 10 9 10 11 11 10 9 8 9 11 11 11 13 14 12 9 7 8 9 11 14 13 12 11 14 15 14 14 14 12 12 13 15 15 16 17 17 15 13 14 14 13 13 13 13 13 13 13 13 13 13 13 13 13 13 13 13 12 14 18 27 32 33 nan
nan 14 16 17 18 18 19 21 20 18 15 14 16 22 25 20 14 10 10 10 10 10 9 9 10 10 9 9 10 11 13 12 11 10 14 15 12 8 7 8 9 11 14 15 16 17 18 17 15 13 11 9 10 11 14 16 20 23 23 21 21 20 18 16 15 14 14 14 14 14 14 14 14 14 14 14 13 13 12 11 16 24 34 31 23 nan
nan 18 20 20 21 22 23 23 20 17 15 15 18 23 24 18 13 11 10 10 10 10 9 9 10 10 9 11 14 16 16 11 8 8 13 15 12 8 7 8 9 11 13 15 16 16 15 14 12 10 8 9 11 11 12 15 19 21 22 24 26 24 20 17 16 16 16 15 15 14 14 14 14 14 14 14 13 13 12 12 17 23 26 21 15 nan
nan 17 18 18 19 20 20 19 17 16 16 18 21 23 21 16 13 12 12 11 11 10 9 9 10 9 10 12 13 13 12 6 4 6 12 15 11 7 7 10 10 11 12 11 10 9 11 13 11 9 9 11 12 12 11 12 14 16 16 20 21 20 16 17 18 19 20 18 17 16 15 15 14 14 14 14 14 13 13 14 16 17 16 14 13 nan
nan 15 14 14 15 16 15 15 14 14 15 18 19 18 16 14 12 11 11 11 11 10 10 9 9 9 10 9 8 8 5 1 0 4 11 15 11 8 8 10 9 10 10 9 8 7 9 7 6 7 9 12 13 12 11 11 12 12 12 13 14 13 14 18 21 23 23 21 20 19 18 17 16 15 15 14 14 15 14 15 15 12 8 11 13 nan
nan 13 11 11 12 12 12 11 11 11 13 14 13 13 13 13 12 11 11 11 11 10 10 9 10 10 11 10 9 7 3 0 -1 2 11 15 12 9 7 8 9 9 10 11 11 10 7 2 2 5 10 12 12 11 12 12 12 12 12 12 12 11 15 19 22 22 19 20 22 23 23 23 22 21 19 18 18 18 17 18 15 10 0 4 9 nan
nan 11 11 12 12 11 10 9 10 11 12 11 11 11 12 11 11 12 12 11 11 11 10 10 10 10 10 12 11 9 5 3 1 4 12 15 12 7 6 9 10 10 11 12 12 13 9 4 4 6 9 10 11 12 12 12 13 13 13 12 11 11 14 16 17 16 14 17 20 22 24 27 27 26 25 23 22 20 18 18 16 11 2 -4 -1 nan
nan 12 12 12 11 11 10 10 11 11 11 11 11 11 11 10 11 11 12 11 11 10 10 9 9 9 9 9 9 8 6 4 3 6 12 14 10 8 9 10 10 10 11 10 11 11 8 7 6 6 6 8 11 12 12 12 12 12 12 11 11 11 11 12 12 12 13 14 15 16 18 20 22 23 24 20 16 14 14 15 15 14 10 -0 -6 nan
nan 11 12 12 11 11 10 11 11 12 12 12 11 10 10 10 10 10 11 10 10 9 9 9 9 9 7 7 7 6 5 4 4 6 9 11 9 9 9 9 8 8 10 9 9 8 7 7 8 8 8 10 11 12 11 10 10 11 11 12 12 12 11 11 11 11 12 12 12 12 12 12 14 15 15 12 11 12 14 15 17 18 17 12 5 nan
nan 11 11 12 11 11 11 11 11 11 11 11 10 9 9 9 9 9 10 10 9 9 9 11 12 10 5 4 4 3 2 1 1 3 6 9 10 9 8 6 7 9 10 9 8 8 8 8 9 11 14 13 10 7 5 6 9 11 11 12 12 13 13 13 13 13 13 11 9 8 7 9 10 11 12 15 20 24 27 29 29 27 25 25 20 nan
nan 11 11 11 11 11 11 11 10 10 10 9 8 8 8 9 9 10 11 11 11 10 10 12 12 11 9 8 6 4 2 1 3 5 9 10 10 9 7 7 8 10 10 9 8 9 8 8 9 11 13 11 8 4 4 7 8 9 11 12 12 13 13 14 14 13 11 9 8 7 8 11 12 13 14 20 24 27 30 33 33 32 33 36 34 nan
nan 10 10 10 10 11 10 10 9 9 9 8 8 8 9 10 13 14 14 13 12 12 10 10 10 11 15 16 15 13 11 13 13 14 14 13 11 10 9 9 9 10 11 11 10 9 8 8 7 7 7 8 8 9 11 9 8 7 9 13 15 16 13 11 11 11 10 10 10 12 14 15 14 13 13 16 16 17 18 20 22 25 28 31 36 nan
nan 10 10 10 11 10 9 9 9 9 9 9 10 12 13 14 16 16 14 13 12 12 14 13 13 13 15 17 18 18 18 18 16 15 17 14 11 8 9 9 9 10 12 12 11 10 8 7 7 6 7 7 7 7 7 7 5 3 7 13 12 9 8 9 11 13 13 13 12 13 12 12 11 11 12 12 12 12 12 12 14 17 19 18 22 nan
nan 11 11 11 11 11 11 10 9 8 9 11 13 14 14 13 13 12 12 12 13 14 15 16 15 14 14 15 16 17 19 17 15 15 15 13 10 8 8 9 10 10 11 11 11 10 9 8 8 9 10 9 8 8 8 6 4 5 11 12 7 3 5 10 13 15 15 12 11 10 8 9 11 13 12 12 12 12 11 9 9 10 13 14 14 nan
nan 11 11 11 10 10 9 9 9 11 13 14 13 12 12 11 10 9 9 10 11 12 12 12 12 11 13 14 15 18 19 19 18 16 14 14 13 10 8 8 8 9 10 10 10 10 9 9 10 10 10 11 11 11 9 8 9 12 14 9 7 9 16 18 17 14 11 10 10 10 12 14 15 14 13 13 14 14 13 10 8 8 10 12 13 nan
nan 11 10 10 10 9 9 11 13 14 14 13 12 11 10 10 9 8 9 10 9 9 10 11 11 11 11 11 12 15 17 18 16 15 15 15 14 13 11 8 7 7 7 8 10 11 11 12 12 11 11 11 11 9 8 9 11 13 12 9 9 14 16 11 9 8 9 10 11 13 15 14 13 12 12 13 14 15 15 16 18 18 14 12 13 nan
nan 11 11 11 11 11 12 13 13 12 11 11 10 10 10 9 9 10 12 10 9 9 11 11 12 13 12 11 10 12 13 14 16 19 19 16 13 11 11 11 10 9 8 9 9 9 12 14 13 12 12 12 12 10 9 9 9 10 10 10 11 11 4 0 1 6 10 12 12 11 10 10 10 11 13 15 16 16 16 18 20 21 18 14 13 nan
nan 10 10 11 11 10 10 10 10 10 10 10 10 10 10 10 11 13 12 9 9 10 11 12 13 13 12 10 11 11 11 13 16 19 20 19 17 16 15 14 13 13 14 12 9 8 8 9 10 11 13 13 12 10 9 9 9 9 9 9 11 12 8 5 6 8 9 9 9 8 8 9 11 13 15 15 15 15 16 15 15 15 16 15 13 nan
nan 9 10 11 10 9 9 10 11 11 10 10 10 10 10 11 12 12 10 10 11 11 11 12 12 10 7 8 10 10 10 10 11 13 15 18 20 20 17 14 12 12 13 12 11 9 7 5 6 7 10 12 13 13 12 10 10 9 9 10 12 13 13 12 12 10 9 8 7 6 7 11 15 16 14 13 14 15 17 16 15 14 14 13 13 nan
nan 9 10 10 10 10 10 11 11 10 9 9 10 10 11 11 11 11 11 11 12 12 11 12 11 8 7 8 9 8 7 8 9 10 11 13 14 15 15 14 12 13 12 12 11 10 9 8 6 6 7 9 11 13 13 13 11 9 8 9 11 11 12 11 11 11 10 9 6 3 8 16 19 17 13 12 14 16 16 17 17 17 16 14 13 nan
nan 10 10 10 10 10 10 10 10 9 9 9 10 10 10 9 8 10 12 12 13 12 12 11 10 9 9 9 9 8 7 9 10 10 10 12 12 13 13 13 14 15 15 14 14 15 16 15 12 10 8 8 8 8 10 11 10 9 9 9 10 10 10 10 10 10 11 8 5 6 12 17 16 14 13 13 13 13 13 15 17 19 18 16 14 nan
nan 11 10 10 10 10 10 10 9 9 9 9 10 10 9 8 10 15 15 12 12 12 11 9 9 9 10 10 10 9 10 12 12 11 10 12 12 12 11 12 13 14 15 16 18 21 23 25 24 20 13 8 6 5 7 7 8 9 10 10 11 11 11 10 10 10 9 8 9 12 16 17 14 13 13 11 10 9 11 15 17 19 19 16 14 nan
nan 11 11 11 10 10 10 10 9 9 9 9 10 10 10 11 14 15 14 12 12 11 10 10 10 10 9 9 10 10 12 13 12 10 11 11 11 10 10 10 11 13 14 15 16 18 22 27 30 31 25 16 8 3 4 4 6 8 11 11 11 12 11 10 9 8 7 9 12 15 16 17 15 15 14 12 10 10 13 15 15 16 17 16 13 nan
nan nan nan nan nan nan nan nan nan nan nan nan nan nan nan nan nan nan nan nan nan nan nan nan nan nan nan nan nan nan nan nan nan nan nan nan nan nan nan nan nan nan nan nan nan nan nan nan nan nan nan nan nan nan nan nan nan nan nan nan nan nan nan nan nan nan nan nan nan nan nan nan nan nan nan nan nan nan nan nan nan nan nan nan nan nan
CAPE
nan nan nan nan nan nan nan nan nan nan nan 0 0 0 0 3 1 1 9 4 4 3 4 8 8 14 33 81 105 105 120 125 129 129 129 127 130 130 134 137 137 142 152 151 151 156 161 158 158 160 166 165 172 172 178 184 184 195 207 218 218 241 263 281 281 288 314 335 356 356 367 370 357 357 343 349 358 358 349 352 352 394 411 376 376 334
nan nan nan nan nan nan nan 0 0 0 nan 0 0 0 0 0 0 0 5 9 9 7 7 15 15 21 22 51 90 90 97 105 111 111 114 117 119 119 125 129 129 130 137 136 136 137 137 141 141 154 163 165 173 173 181 192 192 190 201 217 217 235 256 273 273 291 306 329 341 341 343 339 333 333 319 332 334 334 343 346 346 391 414 387 387 353
nan nan nan nan nan nan nan nan 1 1 2 0 1 1 1 1 2 2 5 12 12 14 12 17 17 17 15 33 76 76 88 96 98 98 105 106 110 110 112 114 114 115 118 117 117 121 131 143 143 154 162 176 186 186 199 203 203 210 225 234 234 252 270 277 277 287 298 320 317 317 318 318 325 325 323 319 315 315 344 359 359 388 392 360 360 337
1 nan nan 0 0 0 0 0 2 2 4 2 2 2 4 6 9 9 19 20 20 14 12 10 10 7 8 17 50 50 73 80 88 88 87 92 94 94 92 97 97 97 102 107 107 116 125 142 142 157 171 180 195 195 204 215 215 225 232 245 245 257 268 274 274 287 287 296 303 303 304 284 298 298 304 307 318 318 344 333 333 346 334 326 326 328
3 1 0 1 1 1 2 1 1 1 3 5 7 7 16 16 21 21 30 17 17 9 4 4 4 2 3 7 30 30 59 64 70 70 71 74 78 78 82 83 83 91 94 103 103 115 127 138 138 151 161 169 182 182 186 193 193 202 206 219 219 234 241 259 259 277 279 283 275 275 255 239 238 238 256 273 282 282 291 288 288 283 276 282 282 293
4 3 2 2 2 1 2 3 3 3 6 6 14 14 25 24 22 22 17 10 10 3 1 2 2 2 1 1 17 17 41 48 54 54 58 67 73 73 80 86 86 91 99 104 104 116 121 127 127 137 143 152 160 160 165 171 171 177 185 199 199 219 239 247 247 243 246 239 230 230 213 202 202 202 202 210 217 217 226 236 236 240 232 240 240 258
5 5 5 2 2 2 2 1 3 3 6 12 16 16 19 15 8 8 5 2 2 1 3 3 3 1 0 1 12 12 29 34 44 44 54 65 74 74 79 88 88 95 100 104 104 108 114 111 111 119 128 136 146 146 155 157 157 169 184 191 191 206 209 205 205 201 203 190 182 182 173 174 172 172 171 172 179 179 184 193 193 198 202 216 216 226
4 2 5 4 4 2 2 5 25 25 25 17 5 5 1 0 2 2 7 11 11 5 0 nan nan nan nan nan nan nan nan 2 2 2 14 30 56 56 70 86 86 91 92 97 97 99 100 106 106 110 116 124 133 133 137 134 134 129 125 125 125 121 132 138 138 143 139 141 147 147 146 144 142 142 144 144 145 145 157 171 171 191 213 227 227 239
5 4 2 0 0 0 3 13 25 25 13 7 1 1 nan 1 1 1 1 1 1 1 nan nan nan nan nan nan nan nan 7 15 7 7 16 13 18 18 48 70 70 79 85 91 91 92 95 101 101 107 110 114 116 116 118 111 111 102 101 101 101 103 113 121 121 137 148 151 156 156 150 144 134 134 134 130 133 133 137 153 153 176 202 234 234 251
9 5 0 0 0 4 8 14 9 9 11 6 4 4 3 3 1 1 0 nan nan nan nan 0 0 0 0 1 2 2 7 20 58 58 78 55 77 77 55 42 42 41 68 79 79 84 87 93 93 98 94 99 102 102 99 93 93 89 88 89 89 94 101 117 117 135 150 151 151 151 147 146 143 143 138 132 125 125 128 142 142 155 184 216 216 246
2 1 0 4 4 15 13 6 1 1 5 7 6 6 4 2 1 1 0 nan nan nan nan 0 0 1 1 2 3 3 5 6 12 12 36 45 48 48 45 44 44 50 63 69 69 74 75 76 76 78 81 85 83 83 77 73 73 72 77 85 85 91 100 112 112 128 139 150 151 151 152 152 150 150 144 138 137 137 134 135 135 141 163 194 194 219
nan 1 10 16 16 5 2 1 2 2 5 3 1 1 0 0 2 2 0 nan nan 0 0 1 1 3 0 1 6 6 7 7 6 6 7 8 13 13 15 13 13 23 34 42 42 48 59 65 65 65 62 61 68 68 66 58 58 67 71 78 78 87 99 110 110 122 132 138 144 144 154 157 162 162 152 156 151 151 147 143 143 142 158 177 177 196
5 7 18 7 7 2 0 1 2 2 1 0 0 0 0 nan 1 1 2 1 1 1 0 nan nan 2 1 2 6 6 9 8 6 6 6 5 6 6 4 4 4 5 5 8 8 7 30 49 49 52 54 51 55 55 57 58 58 67 72 81 81 92 102 113 113 124 129 139 148 148 156 169 177 177 177 180 178 178 177 166 166 167 175 186 186 204
14 10 4 1 1 1 2 2 1 1 0 0 0 0 0 0 2 2 4 2 2 2 5 8 8 5 6 12 15 15 8 4 5 5 7 5 5 5 2 5 5 5 4 2 2 2 17 23 23 15 37 39 43 43 46 58 58 70 80 91 91 101 109 112 112 121 130 140 153 153 163 180 189 189 197 208 206 206 204 208 208 199 200 206 206 211
14 3 1 4 4 5 2 1 1 1 0 nan 0 0 1 3 4 4 0 0 0 2 12 22 22 12 10 1 5 5 2 4 4 4 4 5 8 8 4 3 3 2 2 3 3 3 15 12 12 5 8 18 25 25 41 56 56 87 88 96 96 100 104 106 106 118 132 142 152 152 168 181 191 191 200 210 215 215 219 224 224 221 230 233 233 233
3 2 2 4 4 3 1 1 0 0 0 0 1 1 3 5 8 8 7 4 4 5 7 10 10 12 8 4 4 4 2 4 1 1 nan 2 4 4 3 1 1 1 3 4 4 3 5 4 4 6 8 27 52 52 64 73 73 87 87 89 89 95 100 104 104 114 126 142 157 157 168 178 193 193 197 207 218 218 222 230 230 233 236 241 241 249
5 2 0 5 5 2 1 0 0 0 1 2 2 2 nan 2 6 6 6 8 8 9 6 6 6 4 4 2 5 5 4 1 2 2 1 0 2 2 4 2 2 4 2 3 3 3 4 5 5 8 13 41 62 62 65 73 73 80 85 89 89 91 95 101 101 115 129 145 156 156 167 176 185 185 195 203 208 208 212 220 220 231 228 236 236 250
5 2 3 2 2 1 0 1 1 1 4 1 0 0 4 8 3 3 0 1 1 6 8 13 13 4 1 nan 2 2 5 1 4 4 2 3 3 3 3 1 1 1 2 3 3 4 4 8 8 6 21 59 64 64 67 70 70 77 79 82 82 88 92 106 106 118 136 148 163 163 168 175 179 179 184 187 193 193 203 208 208 218 228 225 225 226
4 4 2 2 2 1 1 2 4 4 3 2 8 8 8 9 6 6 13 9 9 7 4 9 9 7 4 1 2 2 4 1 2 2 1 5 4 4 2 2 2 7 3 3 3 3 6 13 13 34 48 58 62 62 63 69 69 74 80 82 82 87 95 104 104 118 133 143 152 152 156 159 163 163 173 176 182 182 192 197 197 202 210 207 207 210
4 4 3 2 2 2 3 5 9 9 10 12 6 6 7 13 11 11 12 8 8 7 7 7 7 10 10 8 3 3 4 4 3 3 2 4 3 3 2 4 4 5 2 2 2 4 7 11 11 20 41 52 56 56 61 64 64 72 79 86 86 91 94 105 105 115 124 132 141 141 149 152 153 153 157 167 174 174 179 186 186 196 199 197 197 200
4 2 1 1 1 2 4 8 13 13 20 19 5 5 10 12 11 11 7 14 14 15 14 9 9 13 7 6 5 5 6 3 3 3 3 4 4 4 2 3 3 3 1 2 2 5 8 10 10 17 26 43 52 52 55 63 63 69 75 83 83 86 91 98 98 106 114 124 127 127 131 137 141 141 148 148 155 155 166 177 177 188 193 197 197 201
3 1 0 2 2 7 9 6 22 22 25 18 16 16 16 8 12 12 15 14 14 17 15 12 12 11 7 8 6 6 9 5 4 4 1 4 3 3 1 0 0 2 3 3 3 6 9 4 4 2 19 44 49 49 55 61 61 69 76 78 78 80 83 91 91 98 105 111 114 114 119 123 128 128 131 136 148 148 153 168 168 180 190 195 195 200
1 1 3 8 8 13 16 7 15 15 26 18 20 20 12 8 15 15 14 14 14 16 14 14 14 13 10 10 5 5 6 5 1 1 nan 1 0 0 1 2 2 4 5 4 4 4 3 2 2 2 17 46 48 48 54 59 59 67 70 73 73 78 80 81 81 87 93 101 106 106 113 121 129 129 134 139 147 147 155 167 167 178 189 195 195 200
2 4 10 13 13 12 13 17 26 26 24 15 14 14 19 17 14 14 13 15 15 14 11 12 12 11 9 5 2 2 3 3 0 0 0 3 4 4 2 2 2 1 2 3 3 1 2 1 1 2 7 37 45 45 51 54 54 60 64 67 67 67 70 75 75 81 85 95 104 104 114 120 133 133 137 146 146 146 160 165 165 175 187 185 185 194
4 14 20 28 28 35 33 22 23 23 15 15 14 14 20 29 28 28 17 15 15 10 9 5 5 8 5 5 1 1 1 3 2 2 2 5 4 4 1 2 2 1 3 3 3 1 1 1 1 1 2 17 35 35 42 47 47 48 53 57 57 58 61 66 66 73 79 86 97 97 106 116 122 122 129 129 134 134 134 137 137 149 150 154 154 159
42 53 65 72 72 90 76 61 57 57 46 23 16 16 17 24 22 22 16 13 13 8 5 4 4 5 3 1 1 1 1 4 2 2 nan 1 4 4 1 3 3 1 5 5 5 3 0 1 1 1 1 6 27 27 34 35 35 39 42 48 48 50 55 56 56 63 67 73 81 81 85 91 97 97 102 108 113 113 109 120 120 124 125 122 122 127
99 108 99 76 76 57 49 55 68 68 83 63 28 28 20 19 18 18 16 9 9 5 4 2 2 5 3 3 2 2 2 3 2 2 0 1 5 5 3 3 3 1 4 3 3 3 4 2 2 2 2 2 9 9 25 27 27 31 36 37 37 41 47 48 48 53 56 57 63 63 68 75 84 84 86 96 98 98 105 110 110 111 114 111 111 108
79 50 33 26 26 27 37 44 54 54 58 61 78 78 49 18 12 12 11 7 7 5 2 5 5 8 5 4 1 1 2 3 2 2 2 3 2 2 3 3 3 3 3 1 1 5 13 6 6 3 2 0 2 2 11 19 19 22 24 27 27 29 32 37 37 42 46 48 54 54 59 65 73 73 80 86 96 96 102 110 110 116 122 113 113 88
23 13 14 16 16 23 32 38 40 40 46 53 68 68 45 12 8 8 8 7 7 5 3 8 8 7 4 3 3 3 1 1 0 0 1 4 3 3 1 3 3 5 1 4 4 2 3 1 1 1 1 2 1 1 3 11 11 10 16 19 19 22 26 30 30 36 38 44 49 49 57 65 71 71 75 84 92 92 98 107 107 115 106 106 106 92
2 5 7 12 12 18 22 16 26 26 38 47 51 51 34 9 6 6 5 7 7 4 5 7 7 6 4 5 3 3 0 nan nan nan 0 2 3 3 2 5 5 7 3 4 4 2 nan 0 0 0 0 4 0 0 nan 1 1 1 3 12 12 13 19 22 22 26 33 38 44 44 51 59 66 66 71 79 84 84 90 95 95 80 62 61 61 66
nan nan nan 2 2 6 6 5 15 15 30 37 34 34 21 8 6 6 9 12 12 3 6 4 4 6 5 1 3 3 0 nan nan nan nan 2 3 3 4 5 5 10 4 0 0 0 0 nan nan 0 0 1 0 0 nan nan nan nan nan nan nan 2 10 13 13 19 28 33 38 38 46 48 56 56 60 67 72 72 77 85 85 71 42 34 34 32
0 1 2 3 3 3 2 3 1 1 1 2 3 3 10 12 9 9 5 3 3 4 3 2 2 3 3 2 1 1 0 nan 1 1 4 nan 5 5 7 1 1 5 5 1 1 nan nan 1 1 0 0 nan nan nan nan nan nan nan nan nan nan nan 0 4 4 6 9 18 25 25 28 29 35 35 40 47 51 51 55 58 58 55 31 17 17 26
4 4 4 4 4 4 3 2 2 2 1 1 2 2 5 7 12 12 8 6 6 2 0 0 0 2 4 5 4 4 1 nan 3 3 10 0 2 2 5 2 2 3 6 5 5 2 nan 0 0 0 nan nan 0 0 nan nan nan nan nan nan nan nan nan 1 1 0 3 8 12 12 19 20 26 26 29 35 39 39 43 49 49 51 46 10 10 18
5 8 6 4 4 3 3 2 2 2 1 1 4 4 5 5 5 5 6 3 3 2 1 nan nan 1 1 1 2 2 1 nan 4 4 8 0 1 1 2 3 3 2 4 3 3 3 1 1 1 2 nan nan 0 0 nan nan nan nan nan nan nan nan nan nan nan 0 2 3 1 1 4 3 16 16 17 22 27 27 33 39 39 46 52 27 27 16
6 6 5 3 3 4 3 2 3 3 2 2 2 2 4 3 2 2 2 1 1 1 nan nan nan nan 0 nan 0 0 0 nan 2 2 10 0 2 2 1 2 2 1 1 3 3 2 3 3 3 4 1 nan nan nan nan nan nan nan nan nan nan nan nan nan nan 0 1 0 0 0 nan nan 3 3 6 13 21 21 28 35 35 40 46 56 56 39
4 6 6 4 4 4 3 3 2 2 2 1 1 1 2 2 1 1 nan 0 0 1 2 1 1 nan nan nan nan nan nan nan 3 3 9 0 0 0 0 nan nan 1 1 2 2 3 1 3 3 5 4 0 nan nan nan nan nan nan nan nan nan nan nan nan nan nan nan nan nan nan nan nan 2 2 4 18 24 24 29 30 30 37 41 49 49 50
6 6 4 3 3 3 2 1 0 0 nan 1 0 0 1 2 0 0 0 0 0 0 0 3 3 1 5 nan nan nan nan nan 0 0 4 0 nan nan nan 1 1 4 0 0 0 0 1 2 2 3 1 0 nan nan nan nan nan nan nan nan nan nan nan nan nan nan nan nan nan nan nan 0 2 2 6 16 19 19 23 28 28 27 32 37 37 44
6 6 4 2 2 2 1 0 0 0 0 nan 0 0 1 0 1 1 nan 0 0 2 0 nan nan nan 6 13 5 5 1 nan nan nan nan 1 nan nan 0 2 2 5 1 0 0 0 0 0 0 2 1 nan 1 1 0 nan nan nan nan nan nan nan nan nan nan nan nan nan 2 2 3 1 nan nan 0 3 3 3 2 2 2 10 18 23 23 31
5 3 4 3 3 2 0 0 0 0 nan 0 0 0 0 0 2 2 2 0 0 1 1 nan nan nan nan 1 8 8 7 1 nan nan nan nan 0 0 0 0 0 1 0 0 0 nan 0 0 0 0 0 0 0 0 nan nan nan nan nan nan nan nan nan nan nan nan nan nan 1 1 1 nan nan nan nan nan 0 0 0 0 0 3 3 3 3 15
4 3 3 4 4 2 0 1 0 0 0 1 2 2 0 0 0 0 0 1 1 1 1 0 0 0 1 3 3 3 2 nan nan nan nan nan nan nan nan nan nan 1 0 0 0 nan 0 2 2 1 2 nan 0 0 0 nan nan nan 0 nan nan nan nan nan nan nan nan nan nan nan nan nan nan nan nan nan 0 0 0 nan nan 0 2 1 1 0
6 3 2 2 2 2 0 nan nan nan 1 1 0 0 nan nan nan nan nan 0 0 0 0 1 1 1 1 1 nan nan nan nan nan nan nan nan nan nan nan nan nan 0 nan 0 0 0 1 1 1 4 1 nan 1 1 1 nan nan 1 2 nan nan nan nan nan nan nan nan nan nan nan 2 1 1 1 nan nan nan nan nan 0 0 0 1 1 1 nan
7 3 1 0 0 nan nan 0 2 2 1 0 nan nan nan nan nan nan 0 0 0 0 0 0 0 1 0 nan nan nan nan nan nan nan nan nan nan nan nan 0 0 0 nan 0 0 0 2 1 1 1 nan nan nan nan 0 nan nan 0 1 nan nan nan nan nan nan nan nan nan nan nan 3 0 nan nan nan nan nan nan nan nan nan 2 4 0 0 nan
3 1 0 nan nan nan 1 3 2 2 1 nan nan nan nan nan nan nan 0 0 0 1 0 nan nan 0 1 0 nan nan nan nan nan nan nan nan nan nan nan 0 0 1 0 0 0 1 2 3 3 nan 0 nan nan nan 0 0 0 nan nan 0 0 0 nan nan nan nan nan nan nan nan nan nan nan nan nan nan nan nan nan 2 2 8 8 2 2 0
2 0 1 0 0 0 1 1 0 0 nan nan nan nan nan nan 1 1 1 nan nan 1 nan nan nan 1 1 1 0 0 nan nan nan nan nan nan nan nan nan 1 1 2 1 0 0 nan 1 2 2 0 0 nan nan nan nan nan nan nan nan nan nan nan nan nan nan nan nan nan nan nan nan nan nan nan 0 0 nan nan 0 nan nan nan 3 4 4 1
nan 1 1 0 0 1 1 0 nan nan nan nan nan nan nan nan 2 2 0 nan nan 1 nan nan nan 0 0 0 0 0 nan nan nan nan nan nan 3 3 2 2 2 1 1 nan nan nan 0 0 0 0 0 nan nan nan 0 nan nan nan nan nan nan nan nan nan nan nan nan nan nan nan nan nan nan nan 0 0 nan nan nan 0 0 nan nan 1 1 1
1 2 2 1 1 0 1 0 nan nan nan nan nan nan nan nan nan nan 1 0 0 0 1 nan nan nan 0 nan nan nan 0 nan nan nan nan nan nan nan nan 1 1 1 0 nan nan nan nan nan nan 1 1 0 0 0 0 nan nan nan nan nan nan nan nan nan nan nan nan nan nan nan nan nan nan nan 0 0 0 0 0 3 3 1 nan nan nan 1
3 3 1 0 0 0 0 0 nan nan nan 0 nan nan nan 0 nan nan 0 1 1 0 1 0 0 nan nan 0 nan nan 0 0 0 0 nan nan nan nan nan nan nan 4 0 nan nan nan 0 0 0 2 0 0 nan nan nan nan nan nan nan nan nan nan nan nan nan nan nan nan nan nan nan 0 1 1 1 1 0 0 nan 1 1 3 0 0 0 2
3 2 0 0 0 0 nan nan nan nan nan nan nan nan nan 0 1 1 0 0 0 0 2 0 0 0 nan 0 nan nan 0 0 nan nan nan nan nan nan nan nan nan 0 3 3 3 4 2 0 0 1 2 0 nan nan nan nan nan nan nan nan nan nan nan nan nan nan nan nan nan nan nan 0 1 1 1 1 0 0 nan nan nan 1 1 nan nan 1
3 1 1 1 1 1 0 nan nan nan nan 0 nan nan nan 2 10 10 0 nan nan 0 nan nan nan 0 0 0 0 0 1 0 nan nan nan nan nan nan nan nan nan 0 0 3 3 3 nan nan nan nan nan nan nan nan nan nan nan nan nan nan nan nan nan nan nan nan nan nan nan nan nan nan nan nan nan 0 0 0 nan nan nan 1 2 1 1 3
0 1 1 0 0 nan 0 nan nan nan 1 1 nan nan nan nan nan nan nan nan nan nan nan nan nan nan 0 0 0 0 0 nan nan nan nan nan nan nan nan 0 0 1 2 1 1 1 nan nan nan nan nan nan nan nan nan nan nan nan nan nan nan nan nan nan nan nan nan nan nan nan nan nan nan nan nan 0 1 1 0 nan nan nan 1 2 2 4
1 1 0 nan nan 0 0 nan nan nan 0 0 0 0 nan nan nan nan nan nan nan nan nan nan nan nan nan nan 0 0 0 nan nan nan nan nan nan nan nan nan nan 1 1 1 1 0 nan nan nan nan nan nan nan nan 0 2 2 0 nan nan nan nan nan nan nan nan 0 nan nan nan nan nan 0 0 nan 0 0 0 nan nan nan nan 0 0 0 1